When you browse on this site, cookies collect data to enhance your experience and personalize the content and advertising you see.
Visit our Privacy Policy to learn more. By continuing to use the site, you agree to this use of cookies and data.
  • In Spain
  • List of Countries
  • For 7 days
  • Water Temperature
  • Satellite Maps
  • Weather Map
  • Weather Widgets
  • user-avatar
    Login

    Hourly Weather Bannyy Ostrov

    Today, 18 July, Thursday

    Time Temperature Precipitation Wind Pressure Humidity
    00:00 +13°C° 0.1 mm 1 mps 736 mmHg 88%
    01:00 +13°C° 0.1 mm 1 mps 736 mmHg 90%
    02:00 +12°C° 0 mm 2 mps 736 mmHg 94%
    03:00 +13°C° 0.4 mm 1 mps 736 mmHg 95%
    04:00 +13°C° 0.4 mm 1 mps 736 mmHg 96%
    05:00 +13°C° 0.4 mm 1 mps 736 mmHg 98%
    06:00 +13°C° 0.8 mm 2 mps 736 mmHg 97%
    07:00 +14°C° 0.8 mm 2 mps 736 mmHg 96%
    08:00 +14°C° 0.8 mm 2 mps 736 mmHg 96%
    09:00 +13°C° 0.4 mm 3 mps 736 mmHg 95%
    10:00 +13°C° 0.4 mm 3 mps 736 mmHg 95%
    11:00 +13°C° 0.4 mm 4 mps 736 mmHg 95%
    12:00 +13°C° 0.3 mm 4 mps 736 mmHg 94%
    13:00 +13°C° 0.3 mm 5 mps 735 mmHg 94%
    14:00 +13°C° 0.3 mm 5 mps 735 mmHg 93%
    15:00 +13°C° 0.3 mm 5 mps 736 mmHg 94%
    16:00 +13°C° 0.3 mm 4 mps 736 mmHg 95%
    17:00 +13°C° 0.3 mm 4 mps 736 mmHg 96%
    18:00 +13°C° 0.2 mm 4 mps 736 mmHg 97%
    19:00 +13°C° 0.2 mm 4 mps 735 mmHg 97%
    20:00 +13°C° 0.2 mm 4 mps 735 mmHg 97%
    21:00 +13°C° 0.4 mm 4 mps 735 mmHg 97%
    22:00 +13°C° 0.4 mm 4 mps 736 mmHg 98%
    23:00 +13°C° 0.4 mm 4 mps 736 mmHg 98%

    Tomorrow, 19 July, Friday

    Time Temperature Precipitation Wind Pressure Humidity
    00:00 +13°C° 1 mm 4 mps 736 mmHg 98%
    01:00 +13°C° 1 mm 4 mps 736 mmHg 98%
    02:00 +13°C° 1 mm 4 mps 736 mmHg 98%
    03:00 +13°C° 0.5 mm 4 mps 736 mmHg 97%
    04:00 +13°C° 0.5 mm 5 mps 736 mmHg 97%
    05:00 +13°C° 0.5 mm 5 mps 736 mmHg 97%
    06:00 +14°C° 0.6 mm 5 mps 737 mmHg 97%
    07:00 +14°C° 0.6 mm 5 mps 737 mmHg 97%
    08:00 +14°C° 0.6 mm 5 mps 737 mmHg 96%
    09:00 +14°C° 0.4 mm 5 mps 738 mmHg 95%
    10:00 +14°C° 0.4 mm 5 mps 738 mmHg 94%
    11:00 +15°C° 0.4 mm 6 mps 738 mmHg 94%
    12:00 +15°C° 0.1 mm 6 mps 739 mmHg 90%
    13:00 +16°C° 0.1 mm 6 mps 739 mmHg 87%
    14:00 +16°C° 0.1 mm 6 mps 739 mmHg 84%
    15:00 +17°C° 0 mm 6 mps 740 mmHg 81%
    16:00 +17°C° 0 mm 6 mps 740 mmHg 79%
    17:00 +17°C° 0 mm 6 mps 740 mmHg 76%
    18:00 +16°C° 0 mm 5 mps 741 mmHg 81%
    19:00 +15°C° 0 mm 4 mps 741 mmHg 86%
    20:00 +14°C° 0 mm 3 mps 741 mmHg 90%
    21:00 +14°C° 0 mm 3 mps 741 mmHg 90%
    22:00 +13°C° 0 mm 3 mps 741 mmHg 89%
    23:00 +13°C° 0 mm 3 mps 742 mmHg 89%

    Day after tomorrow, 20 July, Saturday

    Time Temperature Precipitation Wind Pressure Humidity
    00:00 +13°C° 0 mm 3 mps 742 mmHg 89%
    01:00 +13°C° 0 mm 3 mps 742 mmHg 90%
    02:00 +12°C° 0 mm 3 mps 742 mmHg 91%
    03:00 +13°C° 0 mm 3 mps 742 mmHg 91%
    04:00 +13°C° 0 mm 3 mps 743 mmHg 91%
    05:00 +13°C° 0 mm 4 mps 743 mmHg 91%
    06:00 +14°C° 0 mm 4 mps 743 mmHg 87%
    07:00 +15°C° 0 mm 4 mps 743 mmHg 83%
    08:00 +17°C° 0 mm 4 mps 744 mmHg 80%
    09:00 +19°C° 0 mm 4 mps 744 mmHg 74%
    10:00 +20°C° 0 mm 4 mps 744 mmHg 68%
    11:00 +21°C° 0 mm 5 mps 745 mmHg 63%
    12:00 +22°C° 0 mm 5 mps 745 mmHg 63%
    13:00 +22°C° 0 mm 5 mps 745 mmHg 62%
    14:00 +22°C° 0 mm 5 mps 745 mmHg 62%
    15:00 +22°C° 0 mm 5 mps 745 mmHg 64%
    16:00 +22°C° 0 mm 5 mps 745 mmHg 67%
    17:00 +22°C° 0 mm 4 mps 745 mmHg 69%
    18:00 +20°C° 0.1 mm 4 mps 746 mmHg 75%
    19:00 +19°C° 0.1 mm 3 mps 746 mmHg 81%
    20:00 +17°C° 0.1 mm 2 mps 746 mmHg 88%
    21:00 +16°C° 0 mm 2 mps 746 mmHg 89%
    22:00 +15°C° 0 mm 2 mps 746 mmHg 91%
    23:00 +15°C° 0 mm 2 mps 746 mmHg 93%

    21 July, Sunday

    Time Temperature Precipitation Wind Pressure Humidity
    00:00 +14°C° 0 mm 2 mps 746 mmHg 93%
    01:00 +14°C° 0 mm 2 mps 746 mmHg 92%
    02:00 +13°C° 0 mm 2 mps 746 mmHg 92%
    03:00 +13°C° 0 mm 2 mps 747 mmHg 92%
    04:00 +13°C° 0 mm 2 mps 747 mmHg 91%
    05:00 +13°C° 0 mm 2 mps 747 mmHg 91%
    06:00 +15°C° 0 mm 2 mps 747 mmHg 86%
    07:00 +17°C° 0 mm 2 mps 747 mmHg 80%
    08:00 +19°C° 0 mm 2 mps 747 mmHg 75%
    09:00 +20°C° 0 mm 2 mps 747 mmHg 70%
    10:00 +23°C° 0 mm 2 mps 747 mmHg 66%
    11:00 +24°C° 0 mm 3 mps 747 mmHg 61%
    12:00 +25°C° 0 mm 3 mps 747 mmHg 59%
    13:00 +25°C° 0 mm 3 mps 747 mmHg 58%
    14:00 +25°C° 0 mm 3 mps 747 mmHg 56%
    15:00 +25°C° 0 mm 2 mps 746 mmHg 59%
    16:00 +25°C° 0 mm 2 mps 746 mmHg 62%
    17:00 +25°C° 0 mm 2 mps 746 mmHg 64%
    18:00 +23°C° 0 mm 2 mps 746 mmHg 71%
    19:00 +21°C° 0 mm 1 mps 746 mmHg 78%
    20:00 +19°C° 0 mm 1 mps 746 mmHg 84%
    21:00 +19°C° 0 mm 1 mps 746 mmHg 86%
    22:00 +18°C° 0 mm 1 mps 746 mmHg 88%
    23:00 +16°C° 0 mm 1 mps 746 mmHg 89%

    22 July, Monday

    Time Temperature Precipitation Wind Pressure Humidity
    00:00 +16°C° 0 mm 1 mps 745 mmHg 90%
    01:00 +16°C° 0 mm 1 mps 745 mmHg 91%
    02:00 +15°C° 0 mm 1 mps 745 mmHg 92%
    03:00 +15°C° 0 mm 2 mps 745 mmHg 92%
    04:00 +16°C° 0 mm 2 mps 744 mmHg 92%
    05:00 +16°C° 0 mm 2 mps 744 mmHg 91%
    06:00 +17°C° 0 mm 2 mps 744 mmHg 87%
    07:00 +19°C° 0 mm 2 mps 744 mmHg 84%
    08:00 +20°C° 0 mm 2 mps 744 mmHg 80%
    09:00 +21°C° 0.6 mm 2 mps 744 mmHg 80%
    10:00 +21°C° 0.6 mm 2 mps 744 mmHg 81%
    11:00 +23°C° 0.6 mm 2 mps 744 mmHg 81%
    12:00 +22°C° 0.4 mm 1 mps 744 mmHg 84%
    13:00 +21°C° 0.4 mm 1 mps 744 mmHg 87%
    14:00 +21°C° 0.4 mm 1 mps 744 mmHg 91%
    15:00 +18°C° 0.1 mm 0 mps 744 mmHg 91%
    16:00 +18°C° 0.1 mm 0 mps 743 mmHg 91%
    17:00 +17°C° 0.1 mm 0 mps 743 mmHg 92%
    18:00 +17°C° 0 mm 0 mps 743 mmHg 91%
    19:00 +17°C° 0 mm 0 mps 744 mmHg 91%
    20:00 +16°C° 0 mm 0 mps 744 mmHg 91%
    21:00 +16°C° 0 mm 0 mps 744 mmHg 92%
    22:00 +15°C° 0 mm 0 mps 744 mmHg 92%
    23:00 +16°C° 0 mm 1 mps 744 mmHg 93%

    23 July, Tuesday

    Time Temperature Precipitation Wind Pressure Humidity
    00:00 +16°C° 0 mm 1 mps 744 mmHg 94%
    01:00 +15°C° 0 mm 1 mps 744 mmHg 94%
    02:00 +15°C° 0 mm 1 mps 744 mmHg 95%
    03:00 +15°C° 0 mm 1 mps 744 mmHg 95%
    04:00 +15°C° 0 mm 1 mps 744 mmHg 96%
    05:00 +15°C° 0 mm 2 mps 744 mmHg 97%
    06:00 +17°C° 0 mm 2 mps 744 mmHg 92%
    07:00 +18°C° 0 mm 2 mps 745 mmHg 87%
    08:00 +20°C° 0 mm 2 mps 745 mmHg 82%
    09:00 +21°C° 0 mm 2 mps 745 mmHg 73%
    10:00 +22°C° 0 mm 3 mps 745 mmHg 64%
    11:00 +25°C° 0 mm 3 mps 745 mmHg 55%
    12:00 +25°C° 0 mm 3 mps 745 mmHg 54%
    13:00 +25°C° 0 mm 3 mps 745 mmHg 53%
    14:00 +25°C° 0 mm 4 mps 745 mmHg 52%
    15:00 +25°C° 0 mm 4 mps 745 mmHg 55%
    16:00 +24°C° 0 mm 3 mps 745 mmHg 59%
    17:00 +24°C° 0 mm 3 mps 745 mmHg 62%
    18:00 +21°C° 0 mm 3 mps 745 mmHg 67%
    19:00 +19°C° 0 mm 3 mps 745 mmHg 71%
    20:00 +17°C° 0 mm 2 mps 745 mmHg 76%
    21:00 +16°C° 0 mm 2 mps 745 mmHg 77%
    22:00 +15°C° 0 mm 2 mps 745 mmHg 79%
    23:00 +15°C° 0 mm 2 mps 745 mmHg 81%
    Show more